contact:dominique.lefevre@mio.osupytheas.fr, maurice.libes@osupytheas.fr, didier.mallarino@osupytheas.fr
Project:EMSO http://www.emso-fr.org/EMSO-France
Depth: 2436.0 m
Title:EMSO Ligure Ouest : Data MII capteur MICROCAT
DateTime_Computer,Latitude,Longitude,Temperature,Conductivity,Pressure,DateTime_Instrument
DateTime_Computer,Latitude,Longitude,degC,S m-1,dbar,DateTime_Instrument
2023-07-17T00:02:39Z,42.805,6.029,13.3046,4.60137,2470.684,2023-7-17T02:04:56Z
2023-07-17T00:05:42Z,42.805,6.029,13.3037,4.60138,2470.684,2023-7-17T02:07:59Z
2023-07-17T00:08:45Z,42.805,6.029,13.3047,4.60149,2470.67,2023-7-17T02:11:02Z
2023-07-17T00:11:48Z,42.805,6.029,13.3042,4.60144,2470.693,2023-7-17T02:14:05Z
2023-07-17T00:14:51Z,42.805,6.029,13.3038,4.60135,2470.707,2023-7-17T02:17:08Z
2023-07-17T00:17:54Z,42.805,6.029,13.3037,4.60141,2470.67,2023-7-17T02:20:11Z
2023-07-17T00:20:58Z,42.805,6.029,13.3041,4.60161,2470.67,2023-7-17T02:23:14Z
2023-07-17T00:24:01Z,42.805,6.029,13.3036,4.60152,2470.693,2023-7-17T02:26:17Z
2023-07-17T00:27:04Z,42.805,6.029,13.3037,4.60158,2470.693,2023-7-17T02:29:21Z
2023-07-17T00:30:07Z,42.805,6.029,13.3050,4.60148,2470.661,2023-7-17T02:32:24Z
2023-07-17T00:33:10Z,42.805,6.029,13.3041,4.60125,2470.707,2023-7-17T02:35:27Z
2023-07-17T00:36:13Z,42.805,6.029,13.3036,4.60130,2470.684,2023-7-17T02:38:30Z
2023-07-17T00:39:16Z,42.805,6.029,13.3040,4.60139,2470.67,2023-7-17T02:41:33Z
2023-07-17T00:42:19Z,42.805,6.029,13.3043,4.60135,2470.67,2023-7-17T02:44:36Z
2023-07-17T00:45:22Z,42.805,6.029,13.3039,4.60144,2470.684,2023-7-17T02:47:39Z
2023-07-17T00:48:25Z,42.805,6.029,13.3048,4.60143,2470.646,2023-7-17T02:50:42Z
2023-07-17T00:51:28Z,42.805,6.029,13.3046,4.60154,2470.646,2023-7-17T02:53:45Z
2023-07-17T00:54:31Z,42.805,6.029,13.3043,4.60127,2470.693,2023-7-17T02:56:48Z
2023-07-17T00:57:34Z,42.805,6.029,13.3048,4.60131,2470.646,2023-7-17T02:59:51Z
2023-07-17T01:00:38Z,42.805,6.029,13.3047,4.60130,2470.67,2023-7-17T03:02:54Z
2023-07-17T01:03:41Z,42.805,6.029,13.3046,4.60110,2470.684,2023-7-17T03:05:57Z
2023-07-17T01:06:44Z,42.805,6.029,13.3044,4.60145,2470.646,2023-7-17T03:09:01Z
2023-07-17T01:09:47Z,42.805,6.029,13.3041,4.60117,2470.661,2023-7-17T03:12:04Z
2023-07-17T01:12:50Z,42.805,6.029,13.3048,4.60126,2470.661,2023-7-17T03:15:07Z
2023-07-17T01:15:53Z,42.805,6.029,13.3038,4.60131,2470.684,2023-7-17T03:18:10Z
2023-07-17T01:18:56Z,42.805,6.029,13.3040,4.60135,2470.661,2023-7-17T03:21:13Z
2023-07-17T01:21:59Z,42.805,6.029,13.3043,4.60133,2470.661,2023-7-17T03:24:16Z
2023-07-17T01:25:02Z,42.805,6.029,13.3048,4.60140,2470.637,2023-7-17T03:27:19Z
2023-07-17T01:28:05Z,42.805,6.029,13.3041,4.60141,2470.624,2023-7-17T03:30:22Z
2023-07-17T01:31:08Z,42.805,6.029,13.3048,4.60143,2470.661,2023-7-17T03:33:25Z
2023-07-17T01:34:11Z,42.805,6.029,13.3052,4.60129,2470.693,2023-7-17T03:36:28Z
2023-07-17T01:37:15Z,42.805,6.029,13.3043,4.60140,2470.624,2023-7-17T03:39:31Z
2023-07-17T01:40:18Z,42.805,6.029,13.3043,4.60151,2470.646,2023-7-17T03:42:34Z
2023-07-17T01:43:21Z,42.805,6.029,13.3039,4.60152,2470.661,2023-7-17T03:45:38Z
2023-07-17T01:46:24Z,42.805,6.029,13.3046,4.60139,2470.684,2023-7-17T03:48:41Z
2023-07-17T01:49:27Z,42.805,6.029,13.3041,4.60137,2470.67,2023-7-17T03:51:44Z
2023-07-17T01:52:30Z,42.805,6.029,13.3051,4.60138,2470.646,2023-7-17T03:54:47Z
2023-07-17T01:55:33Z,42.805,6.029,13.3057,4.60138,2470.637,2023-7-17T03:57:50Z
2023-07-17T01:58:36Z,42.805,6.029,13.3042,4.60148,2470.646,2023-7-17T04:00:53Z
2023-07-17T02:01:39Z,42.805,6.029,13.3053,4.60154,2470.646,2023-7-17T04:03:56Z
2023-07-17T02:04:42Z,42.805,6.029,13.3063,4.60125,2470.646,2023-7-17T04:06:59Z
2023-07-17T02:07:45Z,42.805,6.029,13.3047,4.60149,2470.637,2023-7-17T04:10:02Z
2023-07-17T02:10:48Z,42.805,6.029,13.3050,4.60135,2470.614,2023-7-17T04:13:05Z
2023-07-17T02:13:51Z,42.805,6.029,13.3043,4.60156,2470.6,2023-7-17T04:16:08Z
2023-07-17T02:16:55Z,42.805,6.029,13.3052,4.60130,2470.637,2023-7-17T04:19:11Z
2023-07-17T02:19:58Z,42.805,6.029,13.3039,4.60156,2470.67,2023-7-17T04:22:14Z
2023-07-17T02:23:01Z,42.805,6.029,13.3057,4.60147,2470.661,2023-7-17T04:25:18Z
2023-07-17T02:26:04Z,42.805,6.029,13.3053,4.60117,2470.637,2023-7-17T04:28:21Z
2023-07-17T02:29:07Z,42.805,6.029,13.3050,4.60137,2470.646,2023-7-17T04:31:24Z
2023-07-17T02:32:10Z,42.805,6.029,13.3058,4.60146,2470.661,2023-7-17T04:34:27Z
2023-07-17T02:35:13Z,42.805,6.029,13.3056,4.60137,2470.684,2023-7-17T04:37:30Z
2023-07-17T02:38:16Z,42.805,6.029,13.3041,4.60133,2470.624,2023-7-17T04:40:33Z
2023-07-17T02:41:19Z,42.805,6.029,13.3066,4.60162,2470.646,2023-7-17T04:43:36Z
2023-07-17T02:44:22Z,42.805,6.029,13.3069,4.60133,2470.661,2023-7-17T04:46:39Z
2023-07-17T02:47:25Z,42.805,6.029,13.3051,4.60152,2470.646,2023-7-17T04:49:42Z
2023-07-17T02:50:28Z,42.805,6.029,13.3048,4.60147,2470.646,2023-7-17T04:52:45Z
2023-07-17T02:53:32Z,42.805,6.029,13.3042,4.60132,2470.646,2023-7-17T04:55:48Z
2023-07-17T02:56:35Z,42.805,6.029,13.3058,4.60130,2470.624,2023-7-17T04:58:51Z
2023-07-17T02:59:38Z,42.805,6.029,13.3063,4.60148,2470.661,2023-7-17T05:01:55Z
2023-07-17T03:02:41Z,42.805,6.029,13.3052,4.60125,2470.624,2023-7-17T05:04:58Z
2023-07-17T03:05:44Z,42.805,6.029,13.3048,4.60122,2470.661,2023-7-17T05:08:01Z
2023-07-17T03:08:47Z,42.805,6.029,13.3067,4.60139,2470.67,2023-7-17T05:11:04Z
2023-07-17T03:11:50Z,42.805,6.029,13.3051,4.60147,2470.684,2023-7-17T05:14:07Z
2023-07-17T03:14:53Z,42.805,6.029,13.3043,4.60135,2470.637,2023-7-17T05:17:10Z
2023-07-17T03:17:56Z,42.805,6.029,13.3064,4.60119,2470.684,2023-7-17T05:20:13Z
2023-07-17T03:20:59Z,42.805,6.029,13.3048,4.60144,2470.67,2023-7-17T05:23:16Z
2023-07-17T03:24:02Z,42.805,6.029,13.3052,4.60170,2470.684,2023-7-17T05:26:19Z
2023-07-17T03:27:05Z,42.805,6.029,13.3046,4.60156,2470.646,2023-7-17T05:29:22Z
2023-07-17T03:30:09Z,42.805,6.029,13.3042,4.60160,2470.646,2023-7-17T05:32:25Z
2023-07-17T03:33:12Z,42.805,6.029,13.3044,4.60121,2470.661,2023-7-17T05:35:28Z
2023-07-17T03:36:15Z,42.805,6.029,13.3039,4.60131,2470.693,2023-7-17T05:38:32Z
2023-07-17T03:39:18Z,42.805,6.029,13.3062,4.60122,2470.661,2023-7-17T05:41:35Z
2023-07-17T03:42:21Z,42.805,6.029,13.3067,4.60136,2470.646,2023-7-17T05:44:38Z
2023-07-17T03:45:24Z,42.805,6.029,13.3061,4.60151,2470.67,2023-7-17T05:47:41Z
2023-07-17T03:48:27Z,42.805,6.029,13.3044,4.60156,2470.646,2023-7-17T05:50:44Z
2023-07-17T03:51:30Z,42.805,6.029,13.3051,4.60153,2470.661,2023-7-17T05:53:47Z
2023-07-17T03:54:33Z,42.805,6.029,13.3057,4.60155,2470.661,2023-7-17T05:56:50Z
2023-07-17T03:57:36Z,42.805,6.029,13.3050,4.60123,2470.707,2023-7-17T05:59:53Z
2023-07-17T04:00:39Z,42.805,6.029,13.3058,4.60132,2470.684,2023-7-17T06:02:56Z
2023-07-17T04:03:42Z,42.805,6.029,13.3076,4.60146,2470.73,2023-7-17T06:05:59Z
2023-07-17T04:06:46Z,42.805,6.029,13.3061,4.60150,2470.661,2023-7-17T06:09:02Z
2023-07-17T04:09:49Z,42.805,6.029,13.3061,4.60154,2470.707,2023-7-17T06:12:05Z
2023-07-17T04:12:52Z,42.805,6.029,13.3074,4.60165,2470.661,2023-7-17T06:15:08Z
2023-07-17T04:15:55Z,42.805,6.029,13.3061,4.60148,2470.67,2023-7-17T06:18:12Z
2023-07-17T04:18:58Z,42.805,6.029,13.3039,4.60122,2470.73,2023-7-17T06:21:15Z
2023-07-17T04:22:01Z,42.805,6.029,13.3046,4.60150,2470.67,2023-7-17T06:24:18Z
2023-07-17T04:25:04Z,42.805,6.029,13.3066,4.60139,2470.684,2023-7-17T06:27:21Z
2023-07-17T04:28:07Z,42.805,6.029,13.3048,4.60172,2470.67,2023-7-17T06:30:24Z
2023-07-17T04:31:10Z,42.805,6.029,13.3069,4.60169,2470.67,2023-7-17T06:33:27Z
2023-07-17T04:34:13Z,42.805,6.029,13.3056,4.60182,2470.693,2023-7-17T06:36:30Z
2023-07-17T04:37:16Z,42.805,6.029,13.3068,4.60156,2470.707,2023-7-17T06:39:33Z
2023-07-17T04:40:19Z,42.805,6.029,13.3060,4.60187,2470.707,2023-7-17T06:42:36Z
2023-07-17T04:43:22Z,42.805,6.029,13.3063,4.60157,2470.67,2023-7-17T06:45:39Z
2023-07-17T04:46:26Z,42.805,6.029,13.3061,4.60154,2470.67,2023-7-17T06:48:42Z
2023-07-17T04:49:29Z,42.805,6.029,13.3087,4.60157,2470.717,2023-7-17T06:51:45Z
2023-07-17T04:52:32Z,42.805,6.029,13.3063,4.60140,2470.693,2023-7-17T06:54:49Z
2023-07-17T04:55:35Z,42.805,6.029,13.3064,4.60141,2470.693,2023-7-17T06:57:52Z
2023-07-17T04:58:38Z,42.805,6.029,13.3061,4.60162,2470.693,2023-7-17T07:00:55Z
2023-07-17T05:01:41Z,42.805,6.029,13.3044,4.60152,2470.693,2023-7-17T07:03:58Z
2023-07-17T05:04:44Z,42.805,6.029,13.3060,4.60162,2470.693,2023-7-17T07:07:01Z
2023-07-17T05:07:47Z,42.805,6.029,13.3060,4.60149,2470.707,2023-7-17T07:10:04Z
2023-07-17T05:10:50Z,42.805,6.029,13.3073,4.60202,2470.67,2023-7-17T07:13:07Z
2023-07-17T05:13:53Z,42.805,6.029,13.3063,4.60191,2470.693,2023-7-17T07:16:10Z
2023-07-17T05:16:56Z,42.805,6.029,13.3052,4.60161,2470.717,2023-7-17T07:19:13Z
2023-07-17T05:19:59Z,42.805,6.029,13.3084,4.60144,2470.717,2023-7-17T07:22:16Z
2023-07-17T05:23:03Z,42.805,6.029,13.3076,4.60182,2470.707,2023-7-17T07:25:19Z
2023-07-17T05:26:06Z,42.805,6.029,13.3071,4.60163,2470.73,2023-7-17T07:28:22Z
2023-07-17T05:29:09Z,42.805,6.029,13.3070,4.60185,2470.717,2023-7-17T07:31:26Z
2023-07-17T05:32:12Z,42.805,6.029,13.3071,4.60181,2470.74,2023-7-17T07:34:29Z
2023-07-17T05:35:15Z,42.805,6.029,13.3070,4.60168,2470.73,2023-7-17T07:37:32Z
2023-07-17T05:38:18Z,42.805,6.029,13.3073,4.60169,2470.717,2023-7-17T07:40:35Z
2023-07-17T05:41:21Z,42.805,6.029,13.3065,4.60146,2470.717,2023-7-17T07:43:38Z
2023-07-17T05:44:24Z,42.805,6.029,13.3033,4.60140,2470.74,2023-7-17T07:46:41Z
2023-07-17T05:47:27Z,42.805,6.029,13.3048,4.60176,2470.717,2023-7-17T07:49:44Z
2023-07-17T05:50:30Z,42.805,6.029,13.3062,4.60175,2470.754,2023-7-17T07:52:47Z
2023-07-17T05:53:33Z,42.805,6.029,13.3052,4.60158,2470.73,2023-7-17T07:55:50Z
2023-07-17T05:56:36Z,42.805,6.029,13.3086,4.60180,2470.717,2023-7-17T07:58:53Z
2023-07-17T05:59:40Z,42.805,6.029,13.3072,4.60178,2470.73,2023-7-17T08:01:56Z
2023-07-17T06:02:43Z,42.805,6.029,13.3085,4.60169,2470.74,2023-7-17T08:04:59Z
2023-07-17T06:05:46Z,42.805,6.029,13.3073,4.60167,2470.717,2023-7-17T08:08:03Z
2023-07-17T06:08:49Z,42.805,6.029,13.3101,4.60175,2470.754,2023-7-17T08:11:06Z
2023-07-17T06:11:52Z,42.805,6.029,13.3070,4.60182,2470.717,2023-7-17T08:14:09Z
2023-07-17T06:14:55Z,42.805,6.029,13.3068,4.60195,2470.73,2023-7-17T08:17:12Z
2023-07-17T06:17:58Z,42.805,6.029,13.3094,4.60162,2470.754,2023-7-17T08:20:15Z
2023-07-17T06:21:01Z,42.805,6.029,13.3105,4.60216,2470.754,2023-7-17T08:23:18Z
2023-07-17T06:24:04Z,42.805,6.029,13.3093,4.60145,2470.777,2023-7-17T08:26:21Z
2023-07-17T06:27:07Z,42.805,6.029,13.3078,4.60187,2470.693,2023-7-17T08:29:24Z
2023-07-17T06:30:12Z,42.805,6.029,13.3091,4.60167,2470.73,2023-7-17T08:32:29Z
2023-07-17T06:33:15Z,42.805,6.029,13.3081,4.60142,2470.777,2023-7-17T08:35:32Z
2023-07-17T06:36:18Z,42.805,6.029,13.3065,4.60156,2470.74,2023-7-17T08:38:35Z
2023-07-17T06:39:21Z,42.805,6.029,13.3078,4.60181,2470.717,2023-7-17T08:41:38Z
2023-07-17T06:42:24Z,42.805,6.029,13.3079,4.60162,2470.763,2023-7-17T08:44:41Z
2023-07-17T06:45:27Z,42.805,6.029,13.3082,4.60142,2470.74,2023-7-17T08:47:44Z
2023-07-17T06:48:30Z,42.805,6.029,13.3048,4.60165,2470.73,2023-7-17T08:50:47Z
2023-07-17T06:51:33Z,42.805,6.029,13.3063,4.60175,2470.754,2023-7-17T08:53:50Z
2023-07-17T06:54:36Z,42.805,6.029,13.3074,4.60157,2470.74,2023-7-17T08:56:53Z
2023-07-17T06:57:40Z,42.805,6.029,13.3041,4.60165,2470.73,2023-7-17T08:59:56Z
2023-07-17T07:00:43Z,42.805,6.029,13.3080,4.60165,2470.754,2023-7-17T09:02:59Z
2023-07-17T07:03:46Z,42.805,6.029,13.3067,4.60107,2470.73,2023-7-17T09:06:02Z
2023-07-17T07:06:49Z,42.805,6.029,13.3052,4.60161,2470.73,2023-7-17T09:09:06Z
2023-07-17T07:09:52Z,42.805,6.029,13.3067,4.60160,2470.74,2023-7-17T09:12:09Z
2023-07-17T07:12:55Z,42.805,6.029,13.3083,4.60172,2470.73,2023-7-17T09:15:12Z
2023-07-17T07:15:58Z,42.805,6.029,13.3076,4.60175,2470.763,2023-7-17T09:18:15Z
2023-07-17T07:19:01Z,42.805,6.029,13.3044,4.60162,2470.754,2023-7-17T09:21:18Z
2023-07-17T07:22:04Z,42.805,6.029,13.3056,4.60196,2470.74,2023-7-17T09:24:21Z
2023-07-17T07:25:07Z,42.805,6.029,13.3077,4.60206,2470.74,2023-7-17T09:27:24Z
2023-07-17T07:28:10Z,42.805,6.029,13.3073,4.60191,2470.74,2023-7-17T09:30:27Z
2023-07-17T07:31:13Z,42.805,6.029,13.3084,4.60187,2470.73,2023-7-17T09:33:30Z
2023-07-17T07:34:16Z,42.805,6.029,13.3102,4.60173,2470.73,2023-7-17T09:36:33Z
2023-07-17T07:37:20Z,42.805,6.029,13.3096,4.60161,2470.717,2023-7-17T09:39:36Z
2023-07-17T07:40:23Z,42.805,6.029,13.3081,4.60135,2470.754,2023-7-17T09:42:39Z
2023-07-17T07:43:26Z,42.805,6.029,13.3087,4.60232,2470.73,2023-7-17T09:45:43Z
2023-07-17T07:46:29Z,42.805,6.029,13.3071,4.60162,2470.73,2023-7-17T09:48:46Z
2023-07-17T07:49:32Z,42.805,6.029,13.3073,4.60174,2470.717,2023-7-17T09:51:49Z
2023-07-17T07:52:35Z,42.805,6.029,13.3051,4.60146,2470.73,2023-7-17T09:54:52Z
2023-07-17T07:55:38Z,42.805,6.029,13.3054,4.60173,2470.73,2023-7-17T09:57:55Z
2023-07-17T07:58:41Z,42.805,6.029,13.3073,4.60162,2470.717,2023-7-17T10:00:58Z
2023-07-17T08:01:44Z,42.805,6.029,13.3059,4.60161,2470.74,2023-7-17T10:04:01Z
2023-07-17T08:04:47Z,42.805,6.029,13.3062,4.60143,2470.73,2023-7-17T10:07:04Z
2023-07-17T08:07:50Z,42.805,6.029,13.3046,4.60155,2470.73,2023-7-17T10:10:07Z
2023-07-17T08:10:53Z,42.805,6.029,13.3065,4.60140,2470.707,2023-7-17T10:13:10Z
2023-07-17T08:13:57Z,42.805,6.029,13.3070,4.60152,2470.717,2023-7-17T10:16:13Z
2023-07-17T08:17:00Z,42.805,6.029,13.3041,4.60156,2470.693,2023-7-17T10:19:16Z
2023-07-17T08:20:03Z,42.805,6.029,13.3061,4.60150,2470.74,2023-7-17T10:22:20Z
2023-07-17T08:23:06Z,42.805,6.029,13.3074,4.60168,2470.707,2023-7-17T10:25:23Z
2023-07-17T08:26:09Z,42.805,6.029,13.3081,4.60148,2470.693,2023-7-17T10:28:26Z
2023-07-17T08:29:12Z,42.805,6.029,13.3063,4.60166,2470.693,2023-7-17T10:31:29Z
2023-07-17T08:32:15Z,42.805,6.029,13.3045,4.60185,2470.707,2023-7-17T10:34:32Z
2023-07-17T08:35:18Z,42.805,6.029,13.3065,4.60176,2470.707,2023-7-17T10:37:35Z
2023-07-17T08:38:21Z,42.805,6.029,13.3046,4.60125,2470.693,2023-7-17T10:40:38Z
2023-07-17T08:41:24Z,42.805,6.029,13.3084,4.60139,2470.67,2023-7-17T10:43:41Z
2023-07-17T08:44:27Z,42.805,6.029,13.3073,4.60140,2470.693,2023-7-17T10:46:44Z
2023-07-17T08:47:30Z,42.805,6.029,13.3056,4.60144,2470.67,2023-7-17T10:49:47Z
2023-07-17T08:50:33Z,42.805,6.029,13.3076,4.60170,2470.67,2023-7-17T10:52:50Z
2023-07-17T08:53:36Z,42.805,6.029,13.3061,4.60173,2470.693,2023-7-17T10:55:53Z
2023-07-17T08:56:39Z,42.805,6.029,13.3064,4.60164,2470.693,2023-7-17T10:58:56Z
2023-07-17T08:59:42Z,42.805,6.029,13.3057,4.60157,2470.707,2023-7-17T11:01:59Z
2023-07-17T09:02:46Z,42.805,6.029,13.3061,4.60127,2470.693,2023-7-17T11:05:02Z
2023-07-17T09:05:49Z,42.805,6.029,13.3073,4.60164,2470.684,2023-7-17T11:08:05Z
2023-07-17T09:08:52Z,42.805,6.029,13.3078,4.60157,2470.707,2023-7-17T11:11:09Z
2023-07-17T09:11:55Z,42.805,6.029,13.3055,4.60164,2470.684,2023-7-17T11:14:12Z
2023-07-17T09:14:58Z,42.805,6.029,13.3044,4.60152,2470.707,2023-7-17T11:17:15Z
2023-07-17T09:18:01Z,42.805,6.029,13.3031,4.60146,2470.707,2023-7-17T11:20:18Z
2023-07-17T09:21:04Z,42.805,6.029,13.3048,4.60148,2470.684,2023-7-17T11:23:21Z
2023-07-17T09:24:07Z,42.805,6.029,13.3045,4.60129,2470.646,2023-7-17T11:26:24Z
2023-07-17T09:27:10Z,42.805,6.029,13.3064,4.60133,2470.646,2023-7-17T11:29:27Z
2023-07-17T09:30:13Z,42.805,6.029,13.3061,4.60148,2470.661,2023-7-17T11:32:30Z
2023-07-17T09:33:16Z,42.805,6.029,13.3046,4.60152,2470.646,2023-7-17T11:35:33Z
2023-07-17T09:36:20Z,42.805,6.029,13.3048,4.60170,2470.684,2023-7-17T11:38:36Z
2023-07-17T09:39:23Z,42.805,6.029,13.3055,4.60151,2470.646,2023-7-17T11:41:39Z
2023-07-17T09:42:26Z,42.805,6.029,13.3039,4.60135,2470.661,2023-7-17T11:44:43Z
2023-07-17T09:45:29Z,42.805,6.029,13.3061,4.60173,2470.684,2023-7-17T11:47:46Z
2023-07-17T09:48:32Z,42.805,6.029,13.3061,4.60150,2470.67,2023-7-17T11:50:49Z
2023-07-17T09:51:35Z,42.805,6.029,13.3038,4.60149,2470.684,2023-7-17T11:53:52Z
2023-07-17T09:54:38Z,42.805,6.029,13.3030,4.60132,2470.646,2023-7-17T11:56:55Z
2023-07-17T09:57:41Z,42.805,6.029,13.3036,4.60147,2470.646,2023-7-17T11:59:58Z
2023-07-17T10:00:44Z,42.805,6.029,13.3034,4.60150,2470.67,2023-7-17T12:03:01Z
2023-07-17T10:03:47Z,42.805,6.029,13.3031,4.60114,2470.67,2023-7-17T12:06:04Z
2023-07-17T10:06:50Z,42.805,6.029,13.3037,4.60154,2470.661,2023-7-17T12:09:07Z
2023-07-17T10:09:53Z,42.805,6.029,13.3043,4.60168,2470.67,2023-7-17T12:12:10Z
2023-07-17T10:12:57Z,42.805,6.029,13.3049,4.60172,2470.624,2023-7-17T12:15:13Z
2023-07-17T10:16:00Z,42.805,6.029,13.3043,4.60162,2470.661,2023-7-17T12:18:16Z
2023-07-17T10:19:03Z,42.805,6.029,13.3046,4.60147,2470.646,2023-7-17T12:21:20Z
2023-07-17T10:22:06Z,42.805,6.029,13.3041,4.60138,2470.637,2023-7-17T12:24:23Z
2023-07-17T10:25:09Z,42.805,6.029,13.3034,4.60154,2470.624,2023-7-17T12:27:26Z
2023-07-17T10:28:12Z,42.805,6.029,13.3038,4.60131,2470.624,2023-7-17T12:30:29Z
2023-07-17T10:31:13Z,42.805,6.029,13.3043,4.60160,2470.624,2023-7-17T12:33:30Z
2023-07-17T10:34:16Z,42.805,6.029,13.3042,4.60135,2470.637,2023-7-17T12:36:33Z
2023-07-17T10:37:20Z,42.805,6.029,13.3035,4.60135,2470.637,2023-7-17T12:39:36Z
2023-07-17T10:40:23Z,42.805,6.029,13.3031,4.60155,2470.661,2023-7-17T12:42:39Z
2023-07-17T10:43:26Z,42.805,6.029,13.3045,4.60140,2470.6,2023-7-17T12:45:42Z
2023-07-17T10:46:29Z,42.805,6.029,13.3047,4.60145,2470.637,2023-7-17T12:48:46Z
2023-07-17T10:49:32Z,42.805,6.029,13.3033,4.60129,2470.637,2023-7-17T12:51:49Z
2023-07-17T10:52:35Z,42.805,6.029,13.3034,4.60143,2470.6,2023-7-17T12:54:52Z
2023-07-17T10:55:38Z,42.805,6.029,13.3049,4.60152,2470.6,2023-7-17T12:57:55Z
2023-07-17T10:58:41Z,42.805,6.029,13.3038,4.60141,2470.646,2023-7-17T13:00:58Z
2023-07-17T11:01:44Z,42.805,6.029,13.3044,4.60128,2470.646,2023-7-17T13:04:01Z
2023-07-17T11:04:47Z,42.805,6.029,13.3042,4.60147,2470.624,2023-7-17T13:07:04Z
2023-07-17T11:07:50Z,42.805,6.029,13.3037,4.60137,2470.6,2023-7-17T13:10:07Z
2023-07-17T11:10:53Z,42.805,6.029,13.3052,4.60150,2470.6,2023-7-17T13:13:10Z
2023-07-17T11:13:57Z,42.805,6.029,13.3042,4.60150,2470.614,2023-7-17T13:16:13Z
2023-07-17T11:17:00Z,42.805,6.029,13.3041,4.60132,2470.6,2023-7-17T13:19:16Z
2023-07-17T11:20:03Z,42.805,6.029,13.3036,4.60137,2470.6,2023-7-17T13:22:20Z
2023-07-17T11:23:06Z,42.805,6.029,13.3029,4.60152,2470.6,2023-7-17T13:25:23Z
2023-07-17T11:26:09Z,42.805,6.029,13.3040,4.60145,2470.637,2023-7-17T13:28:26Z
2023-07-17T11:29:12Z,42.805,6.029,13.3034,4.60129,2470.614,2023-7-17T13:31:29Z
2023-07-17T11:32:15Z,42.805,6.029,13.3035,4.60122,2470.624,2023-7-17T13:34:32Z
2023-07-17T11:35:18Z,42.805,6.029,13.3043,4.60152,2470.6,2023-7-17T13:37:35Z
2023-07-17T11:38:21Z,42.805,6.029,13.3041,4.60142,2470.614,2023-7-17T13:40:38Z
2023-07-17T11:41:24Z,42.805,6.029,13.3035,4.60130,2470.577,2023-7-17T13:43:41Z
2023-07-17T11:44:27Z,42.805,6.029,13.3028,4.60125,2470.6,2023-7-17T13:46:44Z
2023-07-17T11:47:30Z,42.805,6.029,13.3034,4.60118,2470.624,2023-7-17T13:49:47Z
2023-07-17T11:50:34Z,42.805,6.029,13.3036,4.60139,2470.614,2023-7-17T13:52:50Z
2023-07-17T11:53:37Z,42.805,6.029,13.3033,4.60117,2470.6,2023-7-17T13:55:53Z
2023-07-17T11:56:40Z,42.805,6.029,13.3034,4.60117,2470.6,2023-7-17T13:58:57Z
2023-07-17T11:59:43Z,42.805,6.029,13.3034,4.60122,2470.6,2023-7-17T14:02:00Z
2023-07-17T12:02:46Z,42.805,6.029,13.3030,4.60123,2470.6,2023-7-17T14:05:03Z
2023-07-17T12:05:49Z,42.805,6.029,13.3029,4.60110,2470.614,2023-7-17T14:08:06Z
2023-07-17T12:08:52Z,42.805,6.029,13.3036,4.60122,2470.577,2023-7-17T14:11:09Z
2023-07-17T12:11:55Z,42.805,6.029,13.3054,4.60134,2470.591,2023-7-17T14:14:12Z
2023-07-17T12:14:58Z,42.805,6.029,13.3030,4.60112,2470.614,2023-7-17T14:17:15Z
2023-07-17T12:18:01Z,42.805,6.029,13.3033,4.60118,2470.6,2023-7-17T14:20:18Z
2023-07-17T12:21:04Z,42.805,6.029,13.3047,4.60127,2470.577,2023-7-17T14:23:21Z
2023-07-17T12:24:07Z,42.805,6.029,13.3034,4.60132,2470.577,2023-7-17T14:26:24Z
2023-07-17T12:27:11Z,42.805,6.029,13.3035,4.60145,2470.614,2023-7-17T14:29:27Z
2023-07-17T12:30:14Z,42.805,6.029,13.3043,4.60137,2470.6,2023-7-17T14:32:30Z
2023-07-17T12:33:17Z,42.805,6.029,13.3031,4.60165,2470.614,2023-7-17T14:35:34Z
2023-07-17T12:36:20Z,42.805,6.029,13.3046,4.60134,2470.624,2023-7-17T14:38:37Z
2023-07-17T12:39:23Z,42.805,6.029,13.3042,4.60154,2470.577,2023-7-17T14:41:40Z
2023-07-17T12:42:26Z,42.805,6.029,13.3034,4.60117,2470.614,2023-7-17T14:44:43Z
2023-07-17T12:45:29Z,42.805,6.029,13.3038,4.60140,2470.577,2023-7-17T14:47:46Z
2023-07-17T12:48:32Z,42.805,6.029,13.3036,4.60137,2470.577,2023-7-17T14:50:49Z
2023-07-17T12:51:35Z,42.805,6.029,13.3031,4.60140,2470.591,2023-7-17T14:53:52Z
2023-07-17T12:54:38Z,42.805,6.029,13.3041,4.60129,2470.577,2023-7-17T14:56:55Z
2023-07-17T12:57:41Z,42.805,6.029,13.3033,4.60143,2470.591,2023-7-17T14:59:58Z
2023-07-17T13:00:45Z,42.805,6.029,13.3036,4.60122,2470.577,2023-7-17T15:03:01Z
2023-07-17T13:03:48Z,42.805,6.029,13.3034,4.60132,2470.553,2023-7-17T15:06:04Z
2023-07-17T13:06:51Z,42.805,6.029,13.3036,4.60131,2470.6,2023-7-17T15:09:08Z
2023-07-17T13:09:54Z,42.805,6.029,13.3033,4.60125,2470.6,2023-7-17T15:12:11Z
2023-07-17T13:12:57Z,42.805,6.029,13.3028,4.60128,2470.6,2023-7-17T15:15:14Z
2023-07-17T13:16:00Z,42.805,6.029,13.3032,4.60131,2470.591,2023-7-17T15:18:17Z
2023-07-17T13:19:03Z,42.805,6.029,13.3034,4.60152,2470.624,2023-7-17T15:21:20Z
2023-07-17T13:22:06Z,42.805,6.029,13.3031,4.60147,2470.591,2023-7-17T15:24:23Z
2023-07-17T13:25:09Z,42.805,6.029,13.3043,4.60132,2470.591,2023-7-17T15:27:26Z
2023-07-17T13:28:12Z,42.805,6.029,13.3038,4.60129,2470.553,2023-7-17T15:30:29Z
2023-07-17T13:31:15Z,42.805,6.029,13.3032,4.60140,2470.577,2023-7-17T15:33:32Z
2023-07-17T13:34:18Z,42.805,6.029,13.3031,4.60157,2470.567,2023-7-17T15:36:35Z
2023-07-17T13:37:22Z,42.805,6.029,13.3032,4.60137,2470.6,2023-7-17T15:39:38Z
2023-07-17T13:40:25Z,42.805,6.029,13.3032,4.60112,2470.577,2023-7-17T15:42:42Z
2023-07-17T13:43:28Z,42.805,6.029,13.3030,4.60117,2470.6,2023-7-17T15:45:45Z
2023-07-17T13:46:31Z,42.805,6.029,13.3032,4.60123,2470.591,2023-7-17T15:48:48Z
2023-07-17T13:49:34Z,42.805,6.029,13.3039,4.60135,2470.577,2023-7-17T15:51:51Z
2023-07-17T13:52:37Z,42.805,6.029,13.3054,4.60129,2470.591,2023-7-17T15:54:54Z
2023-07-17T13:55:40Z,42.805,6.029,13.3039,4.60149,2470.586,2023-7-17T15:57:57Z
2023-07-17T13:58:43Z,42.805,6.029,13.3037,4.60158,2470.637,2023-7-17T16:01:00Z
2023-07-17T14:01:46Z,42.805,6.029,13.3037,4.60128,2470.591,2023-7-17T16:04:03Z
2023-07-17T14:04:49Z,42.805,6.029,13.3051,4.60137,2470.591,2023-7-17T16:07:06Z
2023-07-17T14:07:52Z,42.805,6.029,13.3058,4.60152,2470.614,2023-7-17T16:10:09Z
2023-07-17T14:10:56Z,42.805,6.029,13.3046,4.60145,2470.567,2023-7-17T16:13:12Z
2023-07-17T14:13:59Z,42.805,6.029,13.3031,4.60142,2470.591,2023-7-17T16:16:15Z
2023-07-17T14:17:02Z,42.805,6.029,13.3031,4.60110,2470.6,2023-7-17T16:19:19Z
2023-07-17T14:20:05Z,42.805,6.029,13.3036,4.60125,2470.614,2023-7-17T16:22:22Z
2023-07-17T14:23:08Z,42.805,6.029,13.3032,4.60119,2470.591,2023-7-17T16:25:25Z
2023-07-17T14:26:11Z,42.805,6.029,13.3033,4.60114,2470.577,2023-7-17T16:28:28Z
2023-07-17T14:29:14Z,42.805,6.029,13.3036,4.60127,2470.591,2023-7-17T16:31:31Z
2023-07-17T14:32:16Z,42.805,6.029,13.3032,4.60140,2470.6,2023-7-17T16:34:33Z
2023-07-17T14:35:19Z,42.805,6.029,13.3038,4.60113,2470.6,2023-7-17T16:37:36Z
2023-07-17T14:38:22Z,42.805,6.029,13.3038,4.60128,2470.6,2023-7-17T16:40:39Z
2023-07-17T14:41:25Z,42.805,6.029,13.3031,4.60130,2470.591,2023-7-17T16:43:42Z
2023-07-17T14:44:28Z,42.805,6.029,13.3034,4.60122,2470.577,2023-7-17T16:46:45Z
2023-07-17T14:47:31Z,42.805,6.029,13.3038,4.60128,2470.637,2023-7-17T16:49:48Z
2023-07-17T14:50:34Z,42.805,6.029,13.3037,4.60104,2470.624,2023-7-17T16:52:51Z
2023-07-17T14:53:38Z,42.805,6.029,13.3031,4.60112,2470.6,2023-7-17T16:55:54Z
2023-07-17T14:56:41Z,42.805,6.029,13.3034,4.60101,2470.614,2023-7-17T16:58:58Z
2023-07-17T14:59:44Z,42.805,6.029,13.3045,4.60135,2470.614,2023-7-17T17:02:01Z
2023-07-17T15:02:47Z,42.805,6.029,13.3032,4.60115,2470.577,2023-7-17T17:05:04Z
2023-07-17T15:05:50Z,42.805,6.029,13.3030,4.60102,2470.614,2023-7-17T17:08:07Z
2023-07-17T15:08:53Z,42.805,6.029,13.3030,4.60102,2470.661,2023-7-17T17:11:10Z
2023-07-17T15:11:56Z,42.805,6.029,13.3038,4.60116,2470.6,2023-7-17T17:14:13Z
2023-07-17T15:14:59Z,42.805,6.029,13.3027,4.60102,2470.637,2023-7-17T17:17:16Z